Location: ??
(35.5653°N, 139.6194°E)
Time: 08:44:57
(UTC+00:00)

ASTEX 1 - Pass Details

Date: 20 November 2019
Orbit: 721 x 743 km, 92.7° (Epoch: 10 December)

Event Time Altitude Azimuth Distance (km) Brightness Sun altitude
Rises 19:02:30 0° 171° (S) 3,146 6.9 -28.2°
Reaches altitude 10° 19:04:47 10° 170° (S) 2,231 6.1 -27.8°
Maximum altitude 19:09:44 83° 82° (E) 749 3.4 -26.8°
Enters shadow 19:10:12 73° 17° (NNE) 776 3.4 -26.7°
